Location: Newark
(49.8969°N, 3.3422°E)
Time: 20:37:39
(UTC+00:00)

Vanguard 1 Rocket - Pass Details

Date: 28 January 2020
Orbit: 650 x 4226 km, 34.3° (Epoch: 22 February)

Event Time Altitude Azimuth Distance (km) Brightness Sun altitude
Rises 11:07:02 0° 249° (WSW) 4,273 10.9 20.9°
Reaches altitude 10° 11:09:37 10° 240° (WSW) 3,631 10.8 20.9°
Maximum altitude 11:18:30 39° 176° (S) 3,023 11.8 21.2°
Drops below altitude 10° 11:34:22 10° 117° (ESE) 6,391 12.3 21.6°
Sets 11:40:50 0° 112° (ESE) 7,884 12.5 21.7°
